JIA5862 KDCA-KPIT

Flight info

Callsign JIA5862
Flight time N/A
Altitude 28000
Route HORTO4 BUFFR Q178 LEJOY DEMME5
Aircraft CRJ7/M-SDFGIRWY/S

Departure

Time 2026-05-05 02:29
Airport Ronald Reagan Washington National Airport (KDCA)

Arrival

Time N/A
Airport Pittsburgh International Airport (KPIT)
Time Latitude Longitude Altitude Speed Heading
2026-05-05 02:24 38.85509 -77.04175 23 ft 0 kts 64°
2026-05-05 02:26 38.85526 -77.04137 22 ft 13 kts 62°
2026-05-05 02:26 38.85557 -77.04017 23 ft 14 kts 78°
2026-05-05 02:26 38.85626 -77.03962 22 ft 13 kts 358°
2026-05-05 02:27 38.85712 -77.03972 23 ft 12 kts 355°
2026-05-05 02:27 38.85797 -77.03982 23 ft 13 kts 355°
2026-05-05 02:27 38.85888 -77.03990 25 ft 14 kts 358°
2026-05-05 02:27 38.85983 -77.03964 21 ft 15 kts 14°
2026-05-05 02:28 38.86078 -77.03925 19 ft 12 kts 51°
2026-05-05 02:28 38.86041 -77.03868 19 ft 9 kts 167°
2026-05-05 02:28 38.85985 -77.03861 20 ft 14 kts 175°
2026-05-05 02:28 38.85634 -77.03825 20 ft 97 kts 175°
2026-05-05 02:29 38.84659 -77.03732 78 ft 175 kts 175°
2026-05-05 02:29 38.83375 -77.03537 823 ft 194 kts 175°
2026-05-05 02:29 38.82819 -77.03415 1205 ft 194 kts 172°
2026-05-05 02:30 38.81839 -77.03115 1832 ft 149 kts 176°
2026-05-05 02:30 38.80851 -77.03057 1412 ft 143 kts 201°
2026-05-05 02:30 38.79856 -77.03256 757 ft 144 kts 150°
2026-05-05 02:31 38.79589 -77.02330 555 ft 118 kts 88°
2026-05-05 02:31 38.79645 -77.01321 170 ft 107 kts 78°